Location: ???????
(55.5931°N, 39.3286°E)
Time: 19:20:43
(UTC+00:00)

Intercosmos 25 Rocket - Pass Details

Date: 14 April 2024
Orbit: 434 x 2972 km, 82.6° (Epoch: 17 May)

Event Time Altitude Azimuth Distance (km) Brightness Sun altitude
Rises 01:12:04 0° 344° (NNW) 2,433 6.9 -9.5°
Reaches altitude 10° 01:13:58 10° 340° (NNW) 1,578 5.8 -9.3°
Maximum altitude 01:17:08 55° 261° (W) 603 3.2 -8.9°
Drops below altitude 10° 01:21:06 10° 184° (S) 1,983 5.8 -8.4°
Sets 01:23:45 0° 180° (S) 3,158 6.9 -8.1°
